Location: ????? ???????
(38.1582°N, 23.2251°E)
Time: 00:34:51
(UTC+00:00)

Daily predictions for brighter satellites

Satellite Brightness Start Highest point End
(mag) Time Altitude Azimuth Time Altitude Azimuth Time Altitude Azimuth
ATLAS 2AS CENTAUR R/B 4.4 01:22:05 23° NNW 01:22:05 23° NNW 01:26:06 10° NNE
ATLAS 3B R/B 4.1 01:27:32 30° SSE 01:27:32 30° SSE 01:30:54 10° SSE
BREEZE-M DEB (TANK) 4.2 01:33:36 56° E 01:33:36 56° E 01:43:45 10° NE
CZ-2C R/B 4.3 01:35:25 10° NNE 01:38:52 38° N 01:38:52 38° N
Cosmos 1867 4.1 01:52:32 46° N 01:53:46 56° NE 01:59:07 10° SE
GP-B 4.0 02:00:52 48° NE 02:00:52 48° NE 02:04:34 10° N
NOSS 3-1 (A) 4.0 01:55:42 16° NW 02:02:21 83° WSW 02:11:30 10° SSE
Meteor 1-10 Rocket 4.2 02:02:13 74° SE 02:02:35 78° E 02:08:08 10° NNE
Sich 1 3.9 02:00:04 10° N 02:04:17 48° E 02:04:46 46° ESE
USA 281 4.4 02:03:07 10° N 02:07:16 26° NW 02:07:16 26° NW
BlueWalker 3 3.2 02:13:43 39° NE 02:13:43 39° NE 02:17:01 10° ESE
IRS-1D 4.1 02:09:41 10° N 02:13:40 46° NNW 02:13:40 46° NNW
Cosmos 2297 Rocket 2.6 02:13:12 31° S 02:15:45 59° ESE 02:21:19 10° NNE
Envisat 2.8 02:12:18 10° N 02:17:24 84° WNW 02:17:37 80° SW
Nadezhda 2 Rocket 4.5 02:23:50 44° SW 02:25:52 66° W 02:32:17 10° N
Cosmos 2237 Rocket 3.4 02:24:32 10° N 02:29:55 42° ENE 02:35:14 10° SE
METEOR-M 4.4 02:27:51 10° N 02:32:41 45° WNW 02:32:41 45° WNW
Cosmos 1536 3.8 02:29:45 10° N 02:39:26 - S 02:32:05 35° N
OAO 2 Rocket 4.5 02:36:29 27° S 02:36:29 27° S 02:40:02 10° SE
Delta 2 Rocket 4.3 02:36:56 40° SSW 02:37:00 40° SSW 02:41:47 10° SE
YAOGAN 11 4.1 02:36:40 10° S 02:41:07 61° WSW 02:45:32 10° NNW
Okean 1 3.0 02:40:43 57° S 02:41:26 88° W 02:45:18 10° N
Cosmos 2322 4.0 02:43:23 40° W 02:44:05 42° WSW 02:49:22 10° S
SL-08 R/B 4.4 02:41:15 24° SSW 02:44:50 57° W 02:50:51 10° N
Nadezhda 1 Rocket 4.0 02:43:29 10° N 02:49:47 85° E 02:55:56 10° S
COBE Rocket 4.0 02:45:48 10° N 02:50:32 53° WNW 02:52:53 28° SW
Cosmos 1726 4.0 02:48:31 10° NNE 02:51:35 30° ENE 02:54:36 10° SE
NOSS 0 Rocket 3.8 02:45:21 10° NNW 02:51:36 80° WSW 02:57:50 10° SSE
H-2A R/B 3.1 02:48:40 10° NNE 02:52:06 57° E 02:55:30 10° S
COSMOS 2428 2.9 02:47:18 10° NW 02:52:43 46° WSW 02:58:07 10° S
ERS-2 3.9 02:51:50 10° NE 02:54:37 28° E 02:57:22 10° SSE
USA 215 3.3 02:48:44 10° SE 02:55:16 79° NE 03:01:51 10° NW
CBERS-1 4.1 02:50:26 10° N 02:55:24 52° WNW 02:58:27 22° SW
Cosmos 1151 Rocket 3.2 02:54:47 39° WSW 02:55:44 46° W 02:59:58 10° N
CZ-2C R/B 3.5 02:53:42 10° NNW 02:56:49 24° NW 02:56:49 24° NW
Cosmos 2227 Rocket 2.3 02:56:52 10° SSW 03:02:32 82° ESE 03:08:13 10° NNE
Meteor 2-20 Rocket 4.5 02:58:26 10° N 03:04:40 82° E 03:10:36 10° S
Cosmos 2263 Rocket 4.5 03:01:23 10° SSE 03:05:53 25° ESE 03:10:23 10° NE
Cosmos 1328 Rocket 3.4 03:02:14 10° S 03:06:39 80° W 03:11:03 10° N
Cosmos 44 Rocket 3.9 03:05:11 28° W 03:07:04 39° NW 03:11:53 10° NNE
ARIANE 5 R/B 2.5 03:03:41 10° NNE 03:08:43 82° ESE 03:13:41 10° SSW
Meteor 1-27 Rocket 4.0 03:04:34 13° SW 03:09:12 43° WNW 03:14:39 10° N
Cosmos 1733 4.3 03:06:51 10° N 03:10:24 44° E 03:13:55 10° SSE
Cosmos 1666 Rocket 3.4 03:06:08 10° N 03:10:30 77° W 03:14:48 10° S
DMSP B5D2-2 4.0 03:06:51 10° S 03:12:03 64° WSW 03:17:17 10° NNW
Meteor 2-20 4.4 03:06:50 10° NNW 03:12:52 59° W 03:18:52 10° S
ATLAS 3B R/B 4.4 03:14:59 15° WSW 03:14:59 15° WSW 03:17:25 10° SW
Meteor 1-19 Rocket 4.4 03:13:27 10° SSW 03:18:49 46° WNW 03:24:04 10° N
Cosmos 1709 Rocket 4.0 03:13:14 10° S 03:19:36 76° W 03:25:59 10° N
Helios 1A 2.8 03:17:04 10° S 03:21:07 64° WSW 03:25:10 10° NNW
CZ-2D R/B 3.7 03:18:28 10° NNE 03:22:51 81° ESE 03:27:12 10° S
Cosmos 1269 Rocket 3.9 03:21:12 10° NNW 03:26:29 74° WSW 03:31:43 10° S
IRS-P3 4.1 03:21:15 10° N 03:26:37 76° WNW 03:31:54 10° SSW
Meteor 2-4 Rocket 3.8 03:23:20 10° S 03:29:15 83° W 03:35:07 10° N
Cosmos 614 Rocket 4.1 03:27:22 10° NNW 03:32:22 52° WSW 03:37:22 10° S
Cosmos 1980 3.9 03:30:23 10° NNW 03:35:50 51° WSW 03:41:17 10° S
Cosmos 1805 3.6 03:33:02 10° N 03:36:49 66° E 03:40:33 10° SSE
USA 229 DEB 4.3 03:29:39 10° NW 03:36:50 44° WSW 03:44:24 10° S
USA 229 4.3 03:29:44 10° NW 03:36:56 45° WSW 03:44:29 10° S
Cosmos 1633 Rocket 3.4 03:34:56 10° NNW 03:39:06 43° W 03:43:16 10° SSW
Meteor 1-18 Rocket 4.3 03:34:14 10° SSW 03:40:05 72° W 03:45:53 10° N
Cosmos 1484 Rocket 4.2 03:40:18 10° NNW 03:42:35 16° WNW 03:44:39 11° WSW
ATLAS CENTAUR R/B 3.3 03:39:36 10° N 03:42:38 25° NE 03:45:40 10° ESE
H-2A R/B 2.1 03:39:10 10° N 03:44:35 70° WNW 03:49:54 10° SSW
Aureole 3 4.2 03:46:06 10° SSE 03:48:59 40° E 03:51:48 10° NNE
NOSS 3-3 (A) 4.2 03:46:08 10° SSW 03:51:20 64° ESE 03:57:18 10° NE
NOSS 3-3 (C) 4.2 03:46:11 10° SSW 03:51:22 63° ESE 03:57:18 10° NE
BlueWalker 3 3.2 03:48:32 10° WNW 03:51:37 23° SW 03:54:42 10° S
PSLV R/B 3.6 03:51:59 10° NNE 03:56:09 84° ESE 04:00:17 10° SSW
SKYMED 2 3.5 03:52:17 10° S 03:56:36 72° WSW 04:00:57 10° NNW
Cosmos 2251 Rocket 4.5 03:53:01 10° N 03:58:08 52° ENE 04:03:14 10° SE
SAR-Lupe-2 3.7 03:54:46 10° NNE 03:58:21 78° ESE 04:01:54 10° S
CZ-2C R/B 4.2 03:55:32 10° NNE 03:59:05 42° E 04:02:34 10° S
Cosmos 2074 Rocket 4.3 03:54:02 10° S 04:00:12 78° E 04:06:25 10° N
Cosmos 2297 Rocket 3.5 03:56:10 10° W 04:00:13 20° NW 04:04:16 10° N
